sat.trackr.live / text

‹ back to catalog

STARLINK-33998

NORAD 63951 · 2025-098AB

PAYLOAD ACTIVE UNKNOWN

§ Identity

Operator
Country
US
Launch date
2025-05-13
Launch site
AFWTR
Launch vehicle
Mass (kg)
RCS (m²)

Purposes: comms

External: N2YO · Heavens-Above · Gunter

§ Orbital elements

Epoch: 2026-09-20T02:42:36.864288Z

Period
94.14 min
Inclination
70.0009°
Eccentricity
0.0002439
Mean motion
15.29592369 rev/d
Perigee alt
475.4 km
Apogee alt
478.7 km
Semi-major
6,855.2 km
B*
5.3267e-4
RAAN
141.9165°
Arg perigee
275.2918°
Mean anomaly
84.7979°
Rev number
7,573

§ Raw data

STARLINK-339981 63951U 25098AB  26263.11292667  .00015221  00000+0  53267-3 0  99972 63951  70.0009 141.9165 0002439 275.2918  84.7979 15.29592369 75738

JSON: /api/v1/satellites/63951 · /tle

For live sub-satellite position, see the globe view (requires WebGL).

§ Visibility from observer

Set your observer location to see the next 7 days of passes ≥ 10°. The values pass through the URL so the page stays shareable.

No JS? Fill the form by hand. The geolocation button needs JavaScript.